When you browse on this site, cookies collect data to enhance your experience and personalize the content and advertising you see.
Visit our Privacy Policy to learn more. By continuing to use the site, you agree to this use of cookies and data.
  • In Hungary
  • List of Countries
  • For 7 days
  • Water Temperature
  • Weather Map
  • News
  • Weather Widgets
  • user-avatar
    Login

    Hourly Weather Myszkowice

    Today, 23 February, Sunday

    Time Temperature Precipitation Wind Pressure Humidity
    00:00 +5°C° 0 mm 9 mps 745 mmHg 62%
    01:00 +5°C° 0 mm 9 mps 745 mmHg 67%
    02:00 +5°C° 0 mm 9 mps 745 mmHg 72%
    03:00 +5°C° 0.3 mm 9 mps 745 mmHg 71%
    04:00 +4°C° 0.3 mm 8 mps 745 mmHg 71%
    05:00 +4°C° 0.3 mm 8 mps 745 mmHg 70%
    06:00 +2°C° 0 mm 8 mps 745 mmHg 71%
    07:00 +2°C° 0 mm 8 mps 745 mmHg 71%
    08:00 +2°C° 0 mm 8 mps 745 mmHg 72%
    09:00 +2°C° 0.3 mm 8 mps 745 mmHg 74%
    10:00 +2°C° 0.3 mm 8 mps 745 mmHg 75%
    11:00 +1°C° 0.3 mm 8 mps 744 mmHg 77%
    12:00 +2°C° 0.1 mm 9 mps 744 mmHg 69%
    13:00 +3°C° 0.1 mm 9 mps 744 mmHg 62%
    14:00 +5°C° 0.1 mm 10 mps 744 mmHg 54%
    15:00 +3°C° 0 mm 9 mps 743 mmHg 58%
    16:00 +4°C° 0 mm 7 mps 742 mmHg 61%
    17:00 +3°C° 0 mm 6 mps 741 mmHg 64%
    18:00 +2°C° 0.4 mm 5 mps 740 mmHg 74%
    19:00 +3°C° 0.4 mm 3 mps 740 mmHg 85%
    20:00 +3°C° 0.4 mm 2 mps 739 mmHg 95%
    21:00 +3°C° 1 mm 2 mps 737 mmHg 95%
    22:00 +2°C° 1 mm 2 mps 736 mmHg 96%
    23:00 +2°C° 1 mm 2 mps 734 mmHg 96%

    Tomorrow, 24 February, Monday

    Time Temperature Precipitation Wind Pressure Humidity
    00:00 +1°C° 1 mm 3 mps 735 mmHg 96%
    01:00 0°C° 1 mm 4 mps 736 mmHg 95%
    02:00 0°C° 1 mm 5 mps 737 mmHg 95%
    03:00 -1°C° 0.4 mm 6 mps 738 mmHg 90%
    04:00 -1°C° 0.4 mm 7 mps 739 mmHg 84%
    05:00 -1°C° 0.4 mm 9 mps 741 mmHg 78%
    06:00 -1°C° 0 mm 8 mps 742 mmHg 79%
    07:00 -1°C° 0 mm 8 mps 743 mmHg 79%
    08:00 -1°C° 0 mm 8 mps 744 mmHg 80%
    09:00 -1°C° 0.1 mm 8 mps 744 mmHg 82%
    10:00 0°C° 0.1 mm 8 mps 745 mmHg 84%
    11:00 0°C° 0.1 mm 8 mps 746 mmHg 86%
    12:00 +1°C° 0.1 mm 8 mps 746 mmHg 79%
    13:00 +2°C° 0.1 mm 8 mps 747 mmHg 72%
    14:00 +4°C° 0.1 mm 8 mps 747 mmHg 65%
    15:00 +3°C° 0 mm 7 mps 747 mmHg 66%
    16:00 +3°C° 0 mm 6 mps 747 mmHg 68%
    17:00 +3°C° 0 mm 6 mps 747 mmHg 70%
    18:00 +2°C° 0 mm 5 mps 747 mmHg 75%
    19:00 +1°C° 0 mm 5 mps 747 mmHg 80%
    20:00 +1°C° 0 mm 4 mps 747 mmHg 86%
    21:00 +1°C° 0 mm 4 mps 747 mmHg 84%
    22:00 0°C° 0 mm 4 mps 747 mmHg 82%
    23:00 0°C° 0 mm 4 mps 746 mmHg 80%

    Day after tomorrow, 25 February, Tuesday

    Time Temperature Precipitation Wind Pressure Humidity
    00:00 0°C° 0 mm 4 mps 746 mmHg 81%
    01:00 0°C° 0 mm 4 mps 745 mmHg 82%
    02:00 0°C° 0 mm 4 mps 744 mmHg 84%
    03:00 0°C° 0.7 mm 5 mps 743 mmHg 88%
    04:00 -1°C° 0.7 mm 6 mps 742 mmHg 92%
    05:00 -2°C° 0.7 mm 6 mps 740 mmHg 96%
    06:00 -1°C° 1.2 mm 6 mps 739 mmHg 95%
    07:00 +1°C° 1.2 mm 6 mps 739 mmHg 94%
    08:00 +2°C° 1.2 mm 6 mps 738 mmHg 93%
    09:00 +3°C° 0.3 mm 6 mps 738 mmHg 92%
    10:00 +4°C° 0.3 mm 7 mps 737 mmHg 92%
    11:00 +5°C° 0.3 mm 7 mps 737 mmHg 91%
    12:00 +6°C° 0.1 mm 7 mps 737 mmHg 88%
    13:00 +6°C° 0.1 mm 7 mps 737 mmHg 85%
    14:00 +8°C° 0.1 mm 7 mps 737 mmHg 82%
    15:00 +8°C° 0.3 mm 6 mps 736 mmHg 84%
    16:00 +7°C° 0.3 mm 5 mps 736 mmHg 86%
    17:00 +7°C° 0.3 mm 5 mps 736 mmHg 88%
    18:00 +7°C° 0.6 mm 5 mps 735 mmHg 89%
    19:00 +6°C° 0.6 mm 5 mps 735 mmHg 89%
    20:00 +6°C° 0.6 mm 5 mps 735 mmHg 89%
    21:00 +6°C° 1.1 mm 5 mps 735 mmHg 90%
    22:00 +5°C° 1.1 mm 6 mps 735 mmHg 90%
    23:00 +5°C° 1.1 mm 6 mps 735 mmHg 91%

    26 February, Wednesday

    Time Temperature Precipitation Wind Pressure Humidity
    00:00 +4°C° 0.6 mm 6 mps 735 mmHg 85%
    01:00 +3°C° 0.6 mm 5 mps 735 mmHg 80%
    02:00 +2°C° 0.6 mm 5 mps 736 mmHg 75%
    03:00 +3°C° 0 mm 4 mps 736 mmHg 75%
    04:00 +1°C° 0 mm 4 mps 736 mmHg 76%
    05:00 0°C° 0 mm 4 mps 736 mmHg 76%
    06:00 0°C° 0 mm 4 mps 736 mmHg 78%
    07:00 0°C° 0 mm 4 mps 736 mmHg 79%
    08:00 0°C° 0 mm 4 mps 736 mmHg 80%
    09:00 +1°C° 0 mm 4 mps 736 mmHg 75%
    10:00 +3°C° 0 mm 4 mps 735 mmHg 69%
    11:00 +4°C° 0 mm 4 mps 735 mmHg 64%
    12:00 +4°C° 0 mm 4 mps 735 mmHg 61%
    13:00 +5°C° 0 mm 4 mps 735 mmHg 58%
    14:00 +6°C° 0 mm 4 mps 734 mmHg 54%
    15:00 +6°C° 0 mm 4 mps 734 mmHg 55%
    16:00 +6°C° 0 mm 4 mps 734 mmHg 56%
    17:00 +5°C° 0 mm 3 mps 734 mmHg 57%
    18:00 +5°C° 0 mm 3 mps 735 mmHg 64%
    19:00 +5°C° 0 mm 2 mps 735 mmHg 70%
    20:00 +5°C° 0 mm 1 mps 736 mmHg 77%
    21:00 +3°C° 0 mm 2 mps 736 mmHg 80%
    22:00 +3°C° 0 mm 2 mps 737 mmHg 83%
    23:00 +2°C° 0 mm 2 mps 737 mmHg 87%

    27 February, Thursday

    Time Temperature Precipitation Wind Pressure Humidity
    00:00 +2°C° 0 mm 2 mps 738 mmHg 87%
    01:00 +1°C° 0 mm 2 mps 738 mmHg 87%
    02:00 +1°C° 0 mm 2 mps 738 mmHg 88%
    03:00 +1°C° 0 mm 2 mps 739 mmHg 88%
    04:00 -1°C° 0 mm 2 mps 739 mmHg 89%
    05:00 -1°C° 0 mm 2 mps 739 mmHg 90%
    06:00 -1°C° 0 mm 3 mps 740 mmHg 89%
    07:00 0°C° 0 mm 3 mps 740 mmHg 89%
    08:00 0°C° 0 mm 3 mps 741 mmHg 88%
    09:00 0°C° 0 mm 4 mps 742 mmHg 81%
    10:00 +1°C° 0 mm 4 mps 742 mmHg 74%
    11:00 +2°C° 0 mm 5 mps 743 mmHg 68%
    12:00 +2°C° 0 mm 5 mps 743 mmHg 66%
    13:00 +2°C° 0 mm 5 mps 743 mmHg 63%
    14:00 +3°C° 0 mm 5 mps 744 mmHg 61%
    15:00 +2°C° 0.1 mm 5 mps 744 mmHg 64%
    16:00 +3°C° 0.1 mm 4 mps 745 mmHg 66%
    17:00 +1°C° 0.1 mm 4 mps 745 mmHg 68%
    18:00 +1°C° 0.1 mm 4 mps 746 mmHg 75%
    19:00 +1°C° 0.1 mm 3 mps 747 mmHg 82%
    20:00 0°C° 0.1 mm 3 mps 747 mmHg 89%
    21:00 0°C° 0 mm 3 mps 748 mmHg 89%
    22:00 -1°C° 0 mm 3 mps 749 mmHg 89%
    23:00 -1°C° 0 mm 3 mps 749 mmHg 89%

    28 February, Friday

    Time Temperature Precipitation Wind Pressure Humidity
    00:00 -1°C° 0 mm 2 mps 749 mmHg 86%
    01:00 -2°C° 0 mm 2 mps 750 mmHg 84%
    02:00 0°C° 0 mm 1 mps 750 mmHg 81%
    03:00 0°C° 0 mm 1 mps 750 mmHg 82%
    04:00 0°C° 0 mm 1 mps 750 mmHg 83%
    05:00 -1°C° 0 mm 1 mps 750 mmHg 85%
    06:00 -2°C° 0 mm 2 mps 750 mmHg 83%
    07:00 -2°C° 0 mm 2 mps 750 mmHg 82%
    08:00 -2°C° 0 mm 3 mps 750 mmHg 80%
    09:00 -2°C° 0 mm 4 mps 750 mmHg 73%
    10:00 -1°C° 0 mm 5 mps 750 mmHg 66%
    11:00 0°C° 0 mm 5 mps 750 mmHg 59%
    12:00 +1°C° 0 mm 6 mps 749 mmHg 54%
    13:00 +2°C° 0 mm 7 mps 748 mmHg 49%
    14:00 +2°C° 0 mm 8 mps 747 mmHg 44%
    15:00 +3°C° 0 mm 7 mps 747 mmHg 47%
    16:00 +3°C° 0 mm 7 mps 747 mmHg 49%
    17:00 +3°C° 0 mm 7 mps 746 mmHg 52%
    18:00 +3°C° 0.1 mm 7 mps 746 mmHg 60%
    19:00 +3°C° 0.1 mm 7 mps 746 mmHg 68%
    20:00 +3°C° 0.1 mm 7 mps 746 mmHg 76%
    21:00 +3°C° 0.2 mm 7 mps 746 mmHg 79%
    22:00 +3°C° 0.2 mm 7 mps 746 mmHg 83%
    23:00 +3°C° 0.2 mm 7 mps 746 mmHg 86%
    Show more